20040115,000028,795450,32.185833,-123.622500,16.625,33.045,NaN,NaN
20040115,000058,795480,32.186500,-123.621000,16.617,33.047,NaN,NaN
20040115,000128,795510,32.187167,-123.619667,16.614,33.046,NaN,NaN
20040115,000158,795540,32.187833,-123.618167,16.616,33.044,NaN,NaN
20040115,000228,795570,32.188500,-123.616667,16.598,33.042,NaN,NaN
20040115,000258,795600,32.189167,-123.615333,16.592,33.041,NaN,NaN
20040115,000328,795630,32.189833,-123.613833,16.559,33.039,NaN,NaN
20040115,000358,795660,32.190500,-123.612500,16.533,33.036,NaN,NaN
20040115,000428,795690,32.191167,-123.611000,16.546,33.032,NaN,NaN
20040115,000458,795720,32.191833,-123.609667,16.547,33.032,NaN,NaN
20040115,000528,795750,32.192500,-123.608167,16.548,33.030,NaN,NaN
20040115,000558,795780,32.193167,-123.606833,16.541,33.031,NaN,NaN
20040115,000628,795810,32.193833,-123.605333,16.544,33.029,NaN,NaN
20040115,000658,795840,32.194500,-123.604000,16.533,33.031,NaN,NaN
20040115,000728,795870,32.195167,-123.602500,16.535,33.029,NaN,NaN
20040115,000758,795900,32.195833,-123.601000,16.536,33.030,NaN,NaN
20040115,000828,795930,32.196500,-123.599667,16.524,33.030,NaN,NaN
20040115,000858,795960,32.197167,-123.598167,16.532,33.028,NaN,NaN
20040115,000928,795990,32.197833,-123.596833,16.545,33.027,NaN,NaN
20040115,000958,796020,32.198500,-123.595333,16.556,33.028,NaN,NaN
20040115,001028,796050,32.199167,-123.593833,16.552,33.029,NaN,NaN
20040115,001058,796080,32.199833,-123.592500,16.554,33.030,NaN,NaN
20040115,001128,796110,32.200500,-123.591000,16.519,33.032,NaN,NaN
20040115,001158,796140,32.201167,-123.589500,16.503,33.032,NaN,NaN
20040115,001228,796170,32.202000,-123.588167,16.464,33.033,NaN,NaN
20040115,001258,796200,32.202667,-123.586667,16.459,33.031,NaN,NaN
20040115,001328,796230,32.203333,-123.585333,16.475,33.028,NaN,NaN
20040115,001358,796260,32.204000,-123.583833,16.500,33.028,NaN,NaN
20040115,001428,796290,32.204667,-123.582333,16.516,33.028,NaN,NaN
20040115,001458,796320,32.205333,-123.581000,16.522,33.029,NaN,NaN
20040115,001528,796350,32.206000,-123.579500,16.531,33.030,NaN,NaN
20040115,001558,796380,32.206667,-123.578000,16.538,33.030,NaN,NaN
20040115,001628,796410,32.207333,-123.576667,16.528,33.033,NaN,NaN
20040115,001658,796440,32.208000,-123.575167,16.518,33.033,NaN,NaN
20040115,001728,796470,32.208667,-123.573833,16.511,33.032,NaN,NaN
20040115,001758,796500,32.209333,-123.572333,16.512,33.031,NaN,NaN
20040115,001828,796530,32.210000,-123.570833,16.516,33.031,NaN,NaN
20040115,001858,796560,32.210667,-123.569500,16.521,33.032,NaN,NaN
20040115,001928,796590,32.211333,-123.568000,16.533,33.032,NaN,NaN
20040115,001958,796620,32.212000,-123.566667,16.545,33.033,NaN,NaN
20040115,002028,796650,32.212667,-123.565167,16.550,33.034,NaN,NaN
20040115,002058,796680,32.213333,-123.563667,16.551,33.034,NaN,NaN
20040115,002128,796710,32.214000,-123.562333,16.557,33.035,NaN,NaN
20040115,002158,796740,32.214667,-123.560833,16.567,33.034,NaN,NaN
20040115,002228,796770,32.215333,-123.559500,16.578,33.034,NaN,NaN
20040115,002258,796800,32.216000,-123.558000,16.590,33.036,NaN,NaN
20040115,002328,796830,32.216667,-123.556667,16.587,33.038,NaN,NaN
20040115,002358,796860,32.217333,-123.555167,16.572,33.038,NaN,NaN
20040115,002428,796890,32.218000,-123.553667,16.570,33.037,NaN,NaN
20040115,002458,796920,32.218667,-123.552333,16.568,33.038,NaN,NaN
20040115,002528,796950,32.219333,-123.550833,16.560,33.038,NaN,NaN
20040115,002558,796980,32.220000,-123.549500,16.558,33.038,NaN,NaN
20040115,002628,797010,32.220667,-123.548000,16.558,33.038,NaN,NaN
20040115,002658,797040,32.221333,-123.546500,16.558,33.037,NaN,NaN
20040115,002728,797070,32.222000,-123.545167,16.553,33.038,NaN,NaN
20040115,002758,797100,32.222667,-123.543667,16.560,33.037,NaN,NaN
20040115,002828,797130,32.223333,-123.542333,16.575,33.036,NaN,NaN
20040115,002858,797160,32.224000,-123.540833,16.572,33.038,NaN,NaN
20040115,002928,797190,32.224667,-123.539333,16.571,33.037,NaN,NaN
20040115,002958,797220,32.225333,-123.538000,16.574,33.036,NaN,NaN
20040115,003028,797250,32.226000,-123.536500,16.579,33.037,NaN,NaN
20040115,003058,797280,32.226667,-123.535167,16.580,33.037,NaN,NaN
20040115,003128,797310,32.227333,-123.533667,16.572,33.038,NaN,NaN
20040115,003158,797340,32.228000,-123.532167,16.564,33.038,NaN,NaN
20040115,003228,797370,32.228667,-123.530833,16.564,33.037,NaN,NaN
20040115,003258,797400,32.229333,-123.529333,16.564,33.036,NaN,NaN
20040115,003328,797430,32.230000,-123.527833,16.575,33.035,NaN,NaN
20040115,003358,797460,32.230667,-123.526333,16.587,33.036,NaN,NaN
20040115,003428,797490,32.231333,-123.525000,16.580,33.038,NaN,NaN
20040115,003458,797520,32.232000,-123.523500,16.566,33.038,NaN,NaN
20040115,003528,797550,32.232667,-123.522167,16.563,33.037,NaN,NaN
20040115,003558,797580,32.233333,-123.520667,16.565,33.037,NaN,NaN
20040115,003628,797610,32.234000,-123.519167,16.565,33.037,NaN,NaN
20040115,003658,797640,32.234667,-123.517833,16.557,33.037,NaN,NaN
20040115,003728,797670,32.235333,-123.516333,16.553,33.037,NaN,NaN
20040115,003758,797700,32.236000,-123.514833,16.564,33.036,NaN,NaN
20040115,003828,797730,32.236667,-123.513500,16.566,33.036,NaN,NaN
20040115,003858,797760,32.237333,-123.512000,16.558,33.037,NaN,NaN
20040115,003928,797790,32.237833,-123.510500,16.553,33.037,NaN,NaN
20040115,003958,797820,32.238500,-123.509000,16.546,33.037,NaN,NaN
20040115,004028,797850,32.239167,-123.507667,16.553,33.035,NaN,NaN
20040115,004058,797880,32.239667,-123.506167,16.575,33.034,NaN,NaN
20040115,004128,797910,32.240333,-123.504667,16.584,33.035,NaN,NaN
20040115,004158,797940,32.241000,-123.503167,16.597,33.036,NaN,NaN
20040115,004228,797970,32.241667,-123.501667,16.595,33.037,NaN,NaN
20040115,004258,798000,32.242167,-123.500167,16.589,33.037,NaN,NaN
20040115,004328,798030,32.242833,-123.498667,16.596,33.037,NaN,NaN
20040115,004358,798060,32.243333,-123.497167,16.595,33.037,NaN,NaN
20040115,004428,798090,32.244000,-123.496000,16.590,33.038,NaN,NaN
20040115,004458,798120,32.244333,-123.495000,16.586,33.038,NaN,NaN
20040115,004528,798150,32.244667,-123.494500,16.590,33.037,NaN,NaN
20040115,004558,798180,32.245167,-123.494000,16.591,33.038,NaN,NaN
20040115,004628,798210,32.245500,-123.493500,16.582,33.038,NaN,NaN
20040115,004658,798240,32.245833,-123.493167,16.573,33.038,NaN,NaN
20040115,004728,798270,32.246000,-123.493167,16.565,33.038,NaN,NaN
20040115,004758,798300,32.246167,-123.493333,16.560,33.038,NaN,NaN
20040115,004828,798330,32.246333,-123.493333,16.557,33.038,NaN,NaN
20040115,004858,798360,32.246333,-123.493333,16.556,33.038,NaN,NaN
20040115,004928,798390,32.246333,-123.493333,16.555,33.037,NaN,NaN
20040115,004958,798420,32.246333,-123.493333,16.554,33.037,NaN,NaN
20040115,005028,798450,32.246333,-123.493333,16.554,33.036,NaN,NaN
20040115,005058,798480,32.246333,-123.493500,16.555,33.036,NaN,NaN
20040115,005128,798510,32.246333,-123.493500,16.555,33.037,NaN,NaN
20040115,005158,798540,32.246333,-123.493500,16.557,33.036,NaN,NaN
20040115,005228,798570,32.246500,-123.493333,16.557,33.037,NaN,NaN
20040115,005258,798600,32.246500,-123.493333,16.551,33.037,NaN,NaN
20040115,005328,798630,32.246667,-123.493500,16.550,33.037,NaN,NaN
20040115,005358,798660,32.246667,-123.493500,16.548,33.037,NaN,NaN
20040115,005428,798690,32.246667,-123.493500,16.548,33.037,NaN,NaN
20040115,005458,798720,32.246667,-123.493500,16.547,33.038,NaN,NaN
20040115,005528,798750,32.246667,-123.493500,16.548,33.037,NaN,NaN
20040115,005558,798780,32.246667,-123.493500,16.550,33.037,NaN,NaN
20040115,005628,798810,32.246667,-123.493500,16.551,33.038,NaN,NaN
20040115,005658,798840,32.246833,-123.493500,16.546,33.038,NaN,NaN
20040115,005728,798870,32.246833,-123.493500,16.545,33.038,NaN,NaN
20040115,005758,798900,32.246833,-123.493500,16.544,33.038,NaN,NaN
20040115,005828,798930,32.246833,-123.493500,16.544,33.037,NaN,NaN
20040115,005858,798960,32.246833,-123.493500,16.541,33.038,NaN,NaN
20040115,005928,798990,32.247000,-123.493500,16.539,33.038,NaN,NaN
20040115,005958,799020,32.247000,-123.493500,16.536,33.038,NaN,NaN
20040115,010028,799050,32.247000,-123.493500,16.534,33.038,NaN,NaN
20040115,010058,799080,32.247167,-123.493500,16.532,33.037,NaN,NaN
20040115,010128,799110,32.247167,-123.493500,16.529,33.037,NaN,NaN
20040115,010158,799140,32.247167,-123.493667,16.528,33.038,NaN,NaN
20040115,010228,799170,32.247333,-123.493500,16.529,33.036,NaN,NaN
20040115,010258,799200,32.247333,-123.493500,16.530,33.037,NaN,NaN
20040115,010328,799230,32.247333,-123.493500,16.530,33.037,NaN,NaN
20040115,010358,799260,32.247333,-123.493500,16.529,33.037,NaN,NaN
20040115,010428,799290,32.247500,-123.493500,16.530,33.037,NaN,NaN
20040115,010458,799320,32.247500,-123.493333,16.529,33.037,NaN,NaN
20040115,010528,799350,32.247500,-123.493333,16.530,33.037,NaN,NaN
20040115,010558,799380,32.247500,-123.493333,16.530,33.037,NaN,NaN
20040115,010628,799410,32.247667,-123.493167,16.531,33.037,NaN,NaN
20040115,010658,799440,32.247667,-123.493167,16.534,33.037,NaN,NaN
20040115,010728,799470,32.247667,-123.493167,16.534,33.037,NaN,NaN
20040115,010758,799500,32.247667,-123.493000,16.534,33.037,NaN,NaN
20040115,010828,799530,32.247667,-123.493000,16.535,33.037,NaN,NaN
20040115,010858,799560,32.247833,-123.493000,16.535,33.038,NaN,NaN
20040115,010928,799590,32.247833,-123.493000,16.535,33.037,NaN,NaN
20040115,010958,799620,32.247833,-123.493000,16.534,33.037,NaN,NaN
20040115,011028,799650,32.247833,-123.492833,16.533,33.037,NaN,NaN
20040115,011058,799680,32.248000,-123.492833,16.532,33.037,NaN,NaN
20040115,011128,799710,32.248000,-123.492833,16.530,33.037,NaN,NaN
20040115,011158,799740,32.248000,-123.492667,16.532,33.037,NaN,NaN
20040115,011228,799770,32.248000,-123.492500,16.535,33.038,NaN,NaN
20040115,011258,799800,32.248000,-123.492500,16.538,33.037,NaN,NaN
20040115,011328,799830,32.248000,-123.492333,16.542,33.038,NaN,NaN
20040115,011358,799860,32.248000,-123.492333,16.541,33.038,NaN,NaN
20040115,011428,799890,32.248000,-123.492167,16.539,33.038,NaN,NaN
20040115,011458,799920,32.248000,-123.492167,16.539,33.038,NaN,NaN
20040115,011528,799950,32.248000,-123.492167,16.539,33.037,NaN,NaN
20040115,011558,799980,32.248000,-123.492000,16.539,33.038,NaN,NaN
20040115,011628,800010,32.248000,-123.491833,16.541,33.037,NaN,NaN
20040115,011658,800040,32.248000,-123.491833,16.543,33.038,NaN,NaN
20040115,011728,800070,32.248000,-123.491667,16.543,33.038,NaN,NaN
20040115,011758,800100,32.248167,-123.491667,16.542,33.038,NaN,NaN
20040115,011828,800130,32.248167,-123.491667,16.541,33.038,NaN,NaN
20040115,011858,800160,32.248167,-123.491667,16.540,33.038,NaN,NaN
20040115,011928,800190,32.248333,-123.491667,16.539,33.038,NaN,NaN
20040115,011958,800220,32.248333,-123.491667,16.539,33.038,NaN,NaN
20040115,012028,800250,32.248333,-123.491667,16.540,33.037,NaN,NaN
20040115,012058,800280,32.248333,-123.491667,16.541,33.038,NaN,NaN
20040115,012128,800310,32.248333,-123.491667,16.542,33.038,NaN,NaN
20040115,012158,800340,32.248500,-123.491667,16.542,33.037,NaN,NaN
20040115,012228,800370,32.248500,-123.491667,16.550,33.036,NaN,NaN
20040115,012258,800400,32.248500,-123.491500,16.550,33.037,NaN,NaN
20040115,012328,800430,32.248500,-123.491333,16.550,33.037,NaN,NaN
20040115,012358,800460,32.248500,-123.491333,16.549,33.037,NaN,NaN
20040115,012428,800490,32.248500,-123.491167,16.550,33.038,NaN,NaN
20040115,012458,800520,32.248500,-123.491167,16.546,33.037,NaN,NaN
20040115,012528,800550,32.248500,-123.491167,16.545,33.038,NaN,NaN
20040115,012558,800580,32.248667,-123.491000,16.546,33.038,NaN,NaN
20040115,012628,800610,32.248667,-123.491000,16.546,33.038,NaN,NaN
20040115,012658,800640,32.248833,-123.491000,16.546,33.039,NaN,NaN
20040115,012728,800670,32.248833,-123.491000,16.545,33.038,NaN,NaN
20040115,012758,800700,32.249000,-123.491000,16.544,33.038,NaN,NaN
20040115,012828,800730,32.249000,-123.491000,16.542,33.039,NaN,NaN
20040115,012858,800760,32.249000,-123.491000,16.541,33.038,NaN,NaN
20040115,012928,800790,32.249000,-123.491000,16.541,33.038,NaN,NaN
20040115,012958,800820,32.249167,-123.491000,16.541,33.039,NaN,NaN
20040115,013028,800850,32.249167,-123.491000,16.542,33.038,NaN,NaN
20040115,013058,800880,32.249167,-123.491000,16.542,33.039,NaN,NaN
20040115,013128,800910,32.249167,-123.491000,16.544,33.038,NaN,NaN
20040115,013158,800940,32.249167,-123.491000,16.541,33.039,NaN,NaN
20040115,013228,800970,32.249333,-123.491000,16.539,33.038,NaN,NaN
20040115,013258,801000,32.249333,-123.490833,16.539,33.038,NaN,NaN
20040115,013328,801030,32.249667,-123.490833,16.536,33.039,NaN,NaN
20040115,013358,801060,32.249667,-123.490833,16.534,33.039,NaN,NaN
20040115,013428,801090,32.249667,-123.490833,16.527,33.039,NaN,NaN
20040115,013458,801120,32.249667,-123.490833,16.525,33.039,NaN,NaN
20040115,013528,801150,32.249833,-123.490833,16.524,33.039,NaN,NaN
20040115,013558,801180,32.249833,-123.490833,16.522,33.039,NaN,NaN
20040115,013628,801210,32.249833,-123.490833,16.519,33.039,NaN,NaN
20040115,013658,801240,32.249833,-123.490833,16.518,33.038,NaN,NaN
20040115,013728,801270,32.250167,-123.490667,16.516,33.039,NaN,NaN
20040115,013758,801300,32.250167,-123.490833,16.516,33.038,NaN,NaN
20040115,013828,801330,32.250333,-123.490833,16.519,33.038,NaN,NaN
20040115,013858,801360,32.250333,-123.491000,16.523,33.038,NaN,NaN
20040115,013928,801390,32.250333,-123.491333,16.525,33.039,NaN,NaN
20040115,013958,801420,32.250167,-123.491500,16.526,33.039,NaN,NaN
20040115,014028,801450,32.249833,-123.491667,16.527,33.038,NaN,NaN
20040115,014058,801480,32.249500,-123.491667,16.527,33.038,NaN,NaN
20040115,014128,801510,32.249333,-123.491833,16.524,33.038,NaN,NaN
20040115,014158,801540,32.249000,-123.492000,16.519,33.039,NaN,NaN
20040115,014228,801570,32.248667,-123.492000,16.515,33.039,NaN,NaN
20040115,014258,801600,32.248500,-123.492167,16.514,33.038,NaN,NaN
20040115,014328,801630,32.248167,-123.492167,16.515,33.037,NaN,NaN
20040115,014358,801660,32.248000,-123.492167,16.521,33.037,NaN,NaN
20040115,014428,801690,32.247833,-123.492333,16.521,33.038,NaN,NaN
20040115,014458,801720,32.247500,-123.492333,16.525,33.037,NaN,NaN
20040115,014528,801750,32.247333,-123.492333,16.527,33.037,NaN,NaN
20040115,014558,801780,32.247167,-123.492500,16.528,33.037,NaN,NaN
20040115,014628,801810,32.247000,-123.492500,16.529,33.037,NaN,NaN
20040115,014658,801840,32.246667,-123.492667,16.520,33.038,NaN,NaN
20040115,014728,801870,32.246500,-123.492667,16.517,33.038,NaN,NaN
20040115,014758,801900,32.246333,-123.492833,16.506,33.038,NaN,NaN
20040115,014828,801930,32.246167,-123.493000,16.508,33.037,NaN,NaN
20040115,014858,801960,32.246000,-123.493000,16.501,33.038,NaN,NaN
20040115,014928,801990,32.245667,-123.493000,16.485,33.039,NaN,NaN
20040115,014958,802020,32.245500,-123.493167,16.481,33.038,NaN,NaN
20040115,015028,802050,32.245333,-123.493167,16.489,33.036,NaN,NaN
20040115,015058,802080,32.245167,-123.493333,16.486,33.037,NaN,NaN
20040115,015127,802109,32.245000,-123.493500,16.484,33.036,NaN,NaN
20040115,015157,802139,32.244667,-123.493500,16.484,33.037,NaN,NaN
20040115,015227,802169,32.244500,-123.493500,16.484,33.037,NaN,NaN
20040115,015257,802199,32.244333,-123.493667,16.480,33.038,NaN,NaN
20040115,015327,802229,32.244167,-123.493667,16.483,33.036,NaN,NaN
20040115,015357,802259,32.244000,-123.493833,16.484,33.037,NaN,NaN
20040115,015427,802289,32.243667,-123.493833,16.484,33.036,NaN,NaN
20040115,015457,802319,32.243500,-123.494000,16.484,33.036,NaN,NaN
20040115,015527,802349,32.243333,-123.494000,16.485,33.037,NaN,NaN
20040115,015557,802379,32.243167,-123.494167,16.487,33.036,NaN,NaN
20040115,015627,802409,32.243000,-123.494167,16.491,33.036,NaN,NaN
20040115,015657,802439,32.242667,-123.494167,16.495,33.036,NaN,NaN
20040115,015727,802469,32.242500,-123.494333,16.496,33.036,NaN,NaN
20040115,015757,802499,32.242333,-123.494333,16.497,33.037,NaN,NaN
20040115,015827,802529,32.242167,-123.494333,16.500,33.037,NaN,NaN
20040115,015857,802559,32.241833,-123.494500,16.503,33.037,NaN,NaN
20040115,015927,802589,32.241500,-123.494500,16.504,33.037,NaN,NaN
20040115,015957,802619,32.241333,-123.494333,16.506,33.037,NaN,NaN
20040115,020027,802649,32.241000,-123.494000,16.491,33.038,NaN,NaN
20040115,020057,802679,32.240667,-123.493667,16.485,33.038,NaN,NaN
20040115,020127,802709,32.240333,-123.493333,16.494,33.036,NaN,NaN
20040115,020157,802739,32.240167,-123.492833,16.504,33.036,NaN,NaN
20040115,020227,802769,32.240167,-123.492333,16.510,33.036,NaN,NaN
20040115,020257,802799,32.239833,-123.491833,16.513,33.037,NaN,NaN
20040115,020327,802829,32.239667,-123.491500,16.510,33.038,NaN,NaN
20040115,020357,802859,32.239500,-123.491333,16.514,33.037,NaN,NaN
20040115,020427,802889,32.239167,-123.491333,16.520,33.036,NaN,NaN
20040115,020457,802919,32.239000,-123.491167,16.524,33.037,NaN,NaN
20040115,020527,802949,32.238833,-123.491167,16.516,33.038,NaN,NaN
20040115,020557,802979,32.238667,-123.491167,16.510,33.038,NaN,NaN
20040115,020627,803009,32.238333,-123.491000,16.507,33.037,NaN,NaN
20040115,020657,803039,32.238167,-123.491000,16.507,33.038,NaN,NaN
20040115,020727,803069,32.238000,-123.491000,16.505,33.038,NaN,NaN
20040115,020757,803099,32.237833,-123.491000,16.502,33.037,NaN,NaN
20040115,020827,803129,32.237667,-123.491000,16.504,33.037,NaN,NaN
20040115,020857,803159,32.237500,-123.490833,16.508,33.037,NaN,NaN
20040115,020927,803189,32.237333,-123.490833,16.513,33.037,NaN,NaN
20040115,020957,803219,32.237167,-123.490833,16.509,33.038,NaN,NaN
20040115,021027,803249,32.237000,-123.490833,16.504,33.039,NaN,NaN
20040115,021057,803279,32.236833,-123.490833,16.503,33.038,NaN,NaN
20040115,021127,803309,32.236667,-123.490667,16.502,33.038,NaN,NaN
20040115,021157,803339,32.236333,-123.490667,16.502,33.037,NaN,NaN
20040115,021227,803369,32.236167,-123.490667,16.503,33.036,NaN,NaN
20040115,021257,803399,32.236000,-123.490667,16.503,33.038,NaN,NaN
20040115,021327,803429,32.235667,-123.490667,16.504,33.037,NaN,NaN
20040115,021357,803459,32.235500,-123.490667,16.503,33.038,NaN,NaN
20040115,021427,803489,32.235333,-123.490667,16.503,33.037,NaN,NaN
20040115,021457,803519,32.235167,-123.490667,16.501,33.037,NaN,NaN
20040115,021527,803549,32.235167,-123.490667,16.501,33.038,NaN,NaN
20040115,021557,803579,32.234833,-123.490500,16.501,33.037,NaN,NaN
20040115,021627,803609,32.234667,-123.490667,16.501,33.037,NaN,NaN
20040115,021657,803639,32.234500,-123.490667,16.502,33.037,NaN,NaN
20040115,021727,803669,32.234167,-123.490667,16.502,33.037,NaN,NaN
20040115,021757,803699,32.234000,-123.490667,16.501,33.038,NaN,NaN
20040115,021827,803729,32.233833,-123.490667,16.502,33.037,NaN,NaN
20040115,021857,803759,32.233667,-123.490667,16.502,33.037,NaN,NaN
20040115,021927,803789,32.233500,-123.490833,16.501,33.037,NaN,NaN
20040115,021957,803819,32.233167,-123.490833,16.503,33.037,NaN,NaN
20040115,022027,803849,32.233000,-123.490833,16.503,33.037,NaN,NaN
20040115,022057,803879,32.232833,-123.490833,16.503,33.037,NaN,NaN
20040115,022127,803909,32.232667,-123.490833,16.503,33.037,NaN,NaN
20040115,022157,803939,32.232333,-123.490833,16.504,33.036,NaN,NaN
20040115,022227,803969,32.232167,-123.490833,16.502,33.037,NaN,NaN
20040115,022257,803999,32.232000,-123.490833,16.503,33.037,NaN,NaN
20040115,022327,804029,32.231667,-123.490833,16.497,33.037,NaN,NaN
20040115,022357,804059,32.231500,-123.490833,16.494,33.037,NaN,NaN
20040115,022427,804089,32.231333,-123.490833,16.498,33.037,NaN,NaN
20040115,022457,804119,32.231167,-123.491000,16.495,33.037,NaN,NaN
20040115,022527,804149,32.231000,-123.491000,16.492,33.037,NaN,NaN
20040115,022557,804179,32.230833,-123.491000,16.489,33.037,NaN,NaN
20040115,022627,804209,32.230500,-123.491000,16.489,33.037,NaN,NaN
20040115,022657,804239,32.230333,-123.490833,16.483,33.037,NaN,NaN
20040115,022727,804269,32.230000,-123.490667,16.485,33.037,NaN,NaN
20040115,022757,804299,32.229833,-123.490333,16.481,33.036,NaN,NaN
20040115,022827,804329,32.230000,-123.489833,16.481,33.036,NaN,NaN
20040115,022857,804359,32.230333,-123.489000,16.478,33.037,NaN,NaN
20040115,022927,804389,32.231000,-123.488000,16.474,33.037,NaN,NaN
20040115,022957,804419,32.231500,-123.486500,16.487,33.035,NaN,NaN
20040115,023027,804449,32.232000,-123.485167,16.491,33.036,NaN,NaN
20040115,023057,804479,32.232667,-123.483667,16.488,33.037,NaN,NaN
20040115,023127,804509,32.233333,-123.482167,16.492,33.037,NaN,NaN
20040115,023157,804539,32.234000,-123.480833,16.487,33.038,NaN,NaN
20040115,023227,804569,32.234833,-123.479500,16.483,33.038,NaN,NaN
20040115,023257,804599,32.235500,-123.478000,16.483,33.038,NaN,NaN
20040115,023327,804629,32.236333,-123.476667,16.487,33.037,NaN,NaN
20040115,023357,804659,32.237167,-123.475333,16.489,33.037,NaN,NaN
20040115,023427,804689,32.238000,-123.473833,16.485,33.038,NaN,NaN
20040115,023457,804719,32.238667,-123.472500,16.482,33.038,NaN,NaN
20040115,023527,804749,32.239500,-123.471167,16.481,33.038,NaN,NaN
20040115,023557,804779,32.240333,-123.469833,16.481,33.037,NaN,NaN
20040115,023627,804809,32.241167,-123.468500,16.479,33.038,NaN,NaN
20040115,023657,804839,32.242000,-123.467000,16.481,33.038,NaN,NaN
20040115,023727,804869,32.242833,-123.465667,16.485,33.038,NaN,NaN
20040115,023757,804899,32.243667,-123.464333,16.481,33.039,NaN,NaN
20040115,023827,804929,32.244500,-123.463000,16.475,33.039,NaN,NaN
20040115,023857,804959,32.245333,-123.461500,16.463,33.039,NaN,NaN
20040115,023927,804989,32.246000,-123.460167,16.459,33.038,NaN,NaN
20040115,023957,805019,32.246833,-123.458833,16.477,33.038,NaN,NaN
20040115,024027,805049,32.247667,-123.457333,16.489,33.038,NaN,NaN
20040115,024057,805079,32.248500,-123.456000,16.509,33.037,NaN,NaN
20040115,024127,805109,32.249167,-123.454500,16.524,33.039,NaN,NaN
20040115,024157,805139,32.250000,-123.453167,16.508,33.039,NaN,NaN
20040115,024227,805169,32.250833,-123.451833,16.519,33.039,NaN,NaN
20040115,024257,805199,32.251500,-123.450333,16.516,33.039,NaN,NaN
20040115,024327,805229,32.252333,-123.449000,16.513,33.039,NaN,NaN
20040115,024357,805259,32.253167,-123.447500,16.508,33.040,NaN,NaN
20040115,024427,805289,32.254000,-123.446167,16.484,33.041,NaN,NaN
20040115,024457,805319,32.254667,-123.444667,16.475,33.039,NaN,NaN
20040115,024527,805349,32.255500,-123.443333,16.480,33.038,NaN,NaN
20040115,024557,805379,32.256333,-123.442000,16.494,33.038,NaN,NaN
20040115,024627,805409,32.257000,-123.440500,16.490,33.039,NaN,NaN
20040115,024657,805439,32.257833,-123.439167,16.467,33.039,NaN,NaN
20040115,024727,805469,32.258667,-123.437667,16.461,33.038,NaN,NaN
20040115,024757,805499,32.259333,-123.436333,16.458,33.037,NaN,NaN
20040115,024827,805529,32.260167,-123.434833,16.457,33.037,NaN,NaN
20040115,024857,805559,32.261000,-123.433500,16.457,33.036,NaN,NaN
20040115,024927,805589,32.261667,-123.432167,16.453,33.036,NaN,NaN
20040115,024957,805619,32.262500,-123.430667,16.449,33.035,NaN,NaN
20040115,025027,805649,32.263333,-123.429333,16.441,33.037,NaN,NaN
20040115,025057,805679,32.264167,-123.427833,16.427,33.035,NaN,NaN
20040115,025127,805709,32.264833,-123.426500,16.425,33.034,NaN,NaN
20040115,025157,805739,32.265667,-123.425000,16.429,33.033,NaN,NaN
20040115,025227,805769,32.266500,-123.423667,16.426,33.033,NaN,NaN
20040115,025257,805799,32.267333,-123.422167,16.420,33.033,NaN,NaN
20040115,025327,805829,32.268000,-123.420833,16.415,33.032,NaN,NaN
20040115,025357,805859,32.268833,-123.419333,16.418,33.031,NaN,NaN
20040115,025427,805889,32.269667,-123.418000,16.429,33.032,NaN,NaN
20040115,025457,805919,32.270500,-123.416500,16.437,33.031,NaN,NaN
20040115,025527,805949,32.271167,-123.415167,16.444,33.031,NaN,NaN
20040115,025557,805979,32.272000,-123.413667,16.447,33.031,NaN,NaN